User: anonymous   Login
Location: Unspecified
(0.0000°N, 0.0000°E)
Time: 05:17:20
(UTC+00:00)
Language:

AL-FARABI 1 - Orbit

View from above orbital plane
View from above orbital plane
View from above satellite
View from above satellite

Ground track
Ground track

The orbit data is extracted from the following two-line orbital elements,

1 42016U 17008BW  19083.77354897  .00001175  00000-0  49637-4 0  9997
2 42016  97.4121 151.7193 0007955 108.5698 251.6404 15.25220546116809
Epoch (UTC): 24 March 2019 18:33:54
Eccentricity: 0.0007955
inclination: 97.4121°
perigee height: 484 km
apogee height: 495 km
right ascension of ascending node: 151.7193°
argument of perigee: 108.5698°
revolutions per day: 15.25220546
mean anomaly at epoch: 251.6404°
orbit number at epoch: 11680

The dashed part of the orbit path shows where the satellite is in the earth's shadow,  

DLR